TITAN 3C TRANSTAGE DEB, 5991

Orbit data source: Space-Track

TITAN 3C TRANSTAGE DEB, 5991 is space debris in HEO originally from a launch on Tue, 21 Dec 1965 UTC launched from the Air Force Eastern Test Range (AFETR). Debris objects in space refer to the collection of defunct objects orbiting the Earth. Examples of debris include non-operational satellites, rocket bodies, and fragments generated from explosions, collisions, or faulty payload assembly.

Loading next visibility...
Identifier
5991, 1965-108R
Orbit
HEO
Country
Flag of USUS
Related business
Manufacturer
Unknown
Mission
Spacecraft
Bus & Motor
Unknown
Mass
Unknown
Launch date (UTC)
1965-12-21 (60 years ago)
Launch vehicle
Unknown
Launch site
Air Force Eastern Test Range (AFETR)
Object type
Payload
Rocket body
Debris
Shape & HBR
Unknown shape, 0.3 m
Radar Cross Section
Medium (>0.1 m² and <1 m²)

Expand to show TLE details & history
Last TLE update: 4 days ago

TLE from 4 days ago
0 TITAN 3C TRANSTAGE DEB
1 05991U 65108R   26070.35415098 -.00000045  00000-0  00000-0 0  9994
2 05991  27.8939 301.4719 6561349 159.6451   0.7799  2.63603028114833
Epoch: 2026-03-11T08:29Z
TLE epoch observation values (Epoch: 2026-03-11T08:29:58.644Z)
Latitude
7.40677°
Longitude
170.82967°
Altitude
1,249.917 km
Speed
9.301 km/s
True Right ascension
07h 09m 22s
True Declination
7° 21' 57"
Sunlit
Object was in daylight at epoch
Visualization orbit readout
Latitude
Unknown
Longitude
Unknown
Altitude
Unknown
Speed
Unknown
Apparent Right ascension
Unknown
Apparent Declination
Unknown
Sunlit
N/A
Visualization observer readout
Local Sidereal Time
01:05:05
Azimuth
Unknown
Elevation
Unknown
Doppler factor
Unknown
Orbital elements
Apogee altitude
30,287.443 km
Perigee altitude
1,234.778 km
Semi-major axis
22,139.247 km
Eccentricity
0.65613
Inclination
27.8939°
RAAN
301.4719°
Arg. of periapsis
159.6451°
True anomaly
4.97247°
Mean anomaly
0.7799°
Eccentric anomaly
2.26691°
Mean motion
0.65887 °/min
Orbital period
546.39 mins
BSTAR
0
Loading maneuver chart data...
Computing Atmospheric mass density...

Documentation

Showing up to 5 results
|